Location: Lane
(33.5226°N, 79.8788°W)
Time: 14:56:26
(UTC+00:00)

Vanguard 2 Rocket - Visible Passes

Search period start: 03 October 2022 00:00
Search period end: 13 October 2022 00:00
Orbit: 553 x 3323 km, 32.9° (Epoch: 02 October)

Date Brightness Start Highest point End Pass type
(mag) Time Alt. Az. Time Alt. Az. Time Alt. Az.
03 Oct 9.5 01:31:57 10° SSW 01:46:57 37° SSE 01:46:57 37° SSE visible
03 Oct 10.4 03:48:26 10° WSW 03:52:45 20° WSW 03:52:45 20° WSW visible
03 Oct 8.5 08:36:18 19° SE 08:36:18 19° SE 08:37:30 10° ESE visible
03 Oct 8.3 10:43:33 10° SW 10:44:40 11° SW 10:45:43 10° SSW visible
04 Oct 9.7 00:30:53 10° SSW 00:46:25 30° SSE 00:50:43 27° SE visible
04 Oct 9.7 02:45:37 10° SW 02:56:30 39° SW 02:56:30 39° SW visible
04 Oct 7.7 09:45:43 22° SSW 09:45:43 22° SSW 09:48:46 10° SSE visible
04 Oct 10.1 23:30:54 10° S 23:44:28 23° SE 23:54:26 13° ESE visible
05 Oct 9.2 01:43:15 10° SW 02:00:14 50° SSE 02:00:14 50° SSE visible
05 Oct 10.3 04:01:10 10° WSW 04:06:02 22° WSW 04:06:02 22° WSW visible
05 Oct 8.6 08:49:22 16° SSE 08:49:22 16° SSE 08:50:19 10° SE visible
06 Oct 9.4 00:41:31 10° SSW 00:59:18 41° SSE 01:03:55 36° ESE visible
06 Oct 9.6 02:57:59 10° WSW 03:09:42 44° SW 03:09:42 44° SW visible
06 Oct 8.4 09:58:51 12° SSW 09:58:51 12° SSW 10:00:01 10° SSW visible
06 Oct 9.9 23:40:39 10° SSW 23:57:13 33° SE 00:07:32 18° E visible
07 Oct 9.1 01:55:10 10° SW 02:13:20 62° S 02:13:20 62° S visible
07 Oct 10.3 04:14:09 10° W 04:19:07 22° W 04:19:07 22° W visible
07 Oct 8.9 09:02:32 11° SSE 09:02:32 11° SSE 09:02:40 10° SSE visible
08 Oct 9.2 00:52:57 10° SW 01:12:08 53° SSE 01:16:54 44° ESE visible
08 Oct 9.6 03:10:44 10° WSW 03:22:40 46° WSW 03:22:40 46° WSW visible
08 Oct 9.7 23:51:30 10° SSW 00:09:53 44° SSE 00:20:25 23° E visible
09 Oct 9.0 02:07:35 10° WSW 02:26:11 72° S 02:26:11 72° S visible
09 Oct 10.4 04:27:18 10° W 04:31:57 21° W 04:31:57 21° W visible
09 Oct 10.2 22:50:57 10° SSW 23:07:40 35° SE 23:22:52 10° E visible
10 Oct 9.1 01:04:58 10° SW 01:24:59 65° SSE 01:29:38 52° ESE visible
10 Oct 9.7 03:23:44 10° W 03:35:24 45° W 03:35:24 45° W visible
11 Oct 9.6 00:03:05 10° SW 00:22:32 56° SSE 00:33:00 28° E visible
11 Oct 9.0 02:20:22 10° WSW 02:38:46 77° SW 02:38:46 77° SW visible
11 Oct 10.5 04:40:28 10° W 04:44:32 20° W 04:44:32 20° W visible
11 Oct 10.0 23:01:59 10° SSW 23:20:08 46° SE 23:36:20 11° E visible
12 Oct 9.1 01:17:27 10° WSW 01:37:54 76° SSE 01:42:05 60° E visible
12 Oct 9.8 03:36:52 10° W 03:47:51 42° W 03:47:51 42° W visible
